Regional Weather Roundup
Issued by NWS

Home | Current Version | Previous Version | Text Only | Print | Product List | Glossary Off
Versions: 1 2 3 4 5 6 7 8 9 10 11 12 13 14 15 16 17 18 19 20 21 22 23 24 25 26 27 28 29 30 31 32 33 34 35 36 37 38 39 40 41 42 43 44 45 46 47 48 49 50

000
ASUS43 KIND 301659
RWRIN

WEATHER ROUNDUP FOR INDIANA
NATIONAL WEATHER SERVICE INDIANAPOLIS IN
100 PM EDT SAT AUG 30 2014

NOTE: "FAIR" INDICATES FEW OR NO CLOUDS BELOW 12,000 FEET WITH NO
SIGNIFICANT WEATHER AND/OR OBSTRUCTIONS TO VISIBILITY.

* - STATION DOES NOT REPORT WEATHER SUCH AS PRECIPITATION OR FOG.

+ - STATION NOT QUALITY CONTROLLED BY THE NATIONAL WEATHER SERVICE.
    USE DATA WITH CAUTION...ESPECIALLY DEWPOINT AND RELATIVE
    HUMIDITY OBSERVATIONS.

INZ001>003-010>013-019-020-301800-
NORTHWEST INDIANA

CITY           SKY/WX    TMP DP  RH WIND       PRES   REMARKS
GARY /AIRPORT/ CLOUDY    81  70  69 SW23      29.89S
KNOX *+        PTSUNNY   80  69  69 SW10      29.92S
MONTICELLO +   PTSUNNY   80  71  74 S13G21    29.94F
VALPARAISO     PTSUNNY   80  69  69 S16G24    29.91F

$$

LMZ046-743>745-301800-
SOUTHERN LAKE MICHIGAN

STATION/POSITION TIME  TEMP WIND        PRES
                       AIR  DIR/SP/G
                 (UTC) (F)  (DEG/KT/KT) (MB)
MICHIGAN CITY    1600   76  170/ 15/ 20   N/A

$$

INZ004-005-014>016-021>024-301800-
NORTH CENTRAL INDIANA

CITY           SKY/WX    TMP DP  RH WIND       PRES   REMARKS
ELKHART        PTSUNNY   79  70  73 SW12G20   29.93F
GOSHEN         PTSUNNY   82  70  66 S15G24    29.92F
SOUTH BEND     PTSUNNY   81  70  69 SW16      29.91F

$$

INZ006>009-017-018-025>027-301800-
NORTHEAST INDIANA

CITY           SKY/WX    TMP DP  RH WIND       PRES   REMARKS
ANGOLA *+      PTSUNNY   79  72  78 S12       29.95F
FORT WAYNE     PTSUNNY   77  68  73 SW15      29.99S

$$

INZ028-029-035-036-043>045-051>053-301800-
WEST CENTRAL INDIANA

CITY           SKY/WX    TMP DP  RH WIND       PRES   REMARKS
GREENCASTLE +  CLOUDY    73  70  88 S5        30.02F
LAFAYETTE      PTSUNNY   80  70  71 S9G22     29.96F
TERRE HAUTE    CLOUDY    76  69  79 S13G22    30.01F

$$

INZ030>032-037>040-046>048-054>057-064-065-301800-
CENTRAL INDIANA

CITY           SKY/WX    TMP DP  RH WIND       PRES   REMARKS
ANDERSON       PTSUNNY   75  66  73 S15       30.03F
COLUMBUS       LGT RAIN  72  72 100 S9        30.06R FOG
FRANKFORT +    PTSUNNY   79  71  75 SW12G23   30.01S
INDIANAPOLIS   CLOUDY    74  69  85 S13       30.01F
-EAGLE CREEK   CLOUDY    76  68  76 SW12G18   30.01F
KOKOMO *+      MOSUNNY   79  70  73 S13G22    29.98F
MT COMFORT *+  CLOUDY    75  75 100 S9        30.03S
SHELBYVILLE    LGT RAIN  75  71  87 S13G22    30.04S

$$

INZ033-034-041-042-049-050-058-059-301800-
EAST CENTRAL INDIANA

CITY           SKY/WX    TMP DP  RH WIND       PRES   REMARKS
MUNCIE         PTSUNNY   76  67  73 S9G18     30.01F

$$

INZ060-061-067>069-081>083-085>088-301800-
SOUTHWEST INDIANA

CITY           SKY/WX    TMP DP  RH WIND       PRES   REMARKS
EVANSVILLE     CLOUDY    79  71  76 SE7       30.03F

$$

INZ062-063-066-070>080-084-089>092-301800-
SOUTH CENTRAL AND SOUTHEAST INDIANA

CITY           SKY/WX    TMP DP  RH WIND       PRES   REMARKS
BLOOMINGTON    CLOUDY    74  71  91 SW10      30.05S
SEYMOUR +      CLOUDY    77  61  57 S5        30.06

$$



USA.gov is the U.S. government's official web portal to all federal, state and local government web resources and services.